Time,TemperatureF,DewpointF,PressureIn,WindDirection,WindDirectionDegrees,WindSpeedMPH,WindSpeedGustMPH,Humidity,HourlyPrecipIn,Conditions,Clouds,dailyrainin,SoftwareType,DateUTC
2014-09-20 00:03:00,60.7,55.8,29.89,WNW,294,0.0,0.0,84,0.00,,---,0.00,VWS V14.00,2014-09-20 07:03:00,
2014-09-20 00:08:00,60.6,55.8,29.89,WNW,294,0.0,0.0,84,0.00,,---,0.00,VWS V14.00,2014-09-20 07:08:00,
2014-09-20 00:13:00,60.5,55.7,29.89,WNW,294,0.0,0.0,84,0.00,,---,0.00,VWS V14.00,2014-09-20 07:13:00,
2014-09-20 00:18:00,60.5,55.7,29.89,WNW,294,0.0,0.0,84,0.00,,---,0.00,VWS V14.00,2014-09-20 07:18:00,
2014-09-20 00:23:00,60.4,55.5,29.89,WNW,294,0.0,0.0,84,0.00,,---,0.00,VWS V14.00,2014-09-20 07:23:00,
2014-09-20 00:28:00,60.3,55.5,29.88,WNW,294,0.0,0.0,84,0.00,,---,0.00,VWS V14.00,2014-09-20 07:28:00,
2014-09-20 00:33:00,60.2,55.3,29.88,WNW,294,0.0,0.0,84,0.00,,---,0.00,VWS V14.00,2014-09-20 07:33:00,
2014-09-20 00:38:00,60.1,55.3,29.88,WNW,294,0.0,0.0,84,0.00,,---,0.00,VWS V14.00,2014-09-20 07:38:00,
2014-09-20 00:43:00,60.1,55.3,29.88,WNW,294,0.0,0.0,84,0.00,,---,0.00,VWS V14.00,2014-09-20 07:43:00,
2014-09-20 00:48:00,60.0,55.2,29.89,WNW,294,0.0,0.0,84,0.00,,---,0.00,VWS V14.00,2014-09-20 07:48:00,
2014-09-20 00:53:00,60.0,55.2,29.89,WNW,294,0.0,0.0,84,0.00,,---,0.00,VWS V14.00,2014-09-20 07:53:00,
2014-09-20 00:58:00,60.0,55.2,29.89,WNW,294,0.0,0.0,84,0.00,,---,0.00,VWS V14.00,2014-09-20 07:58:00,
2014-09-20 01:03:00,60.1,55.3,29.88,WNW,294,0.0,0.0,84,0.00,,---,0.00,VWS V14.00,2014-09-20 08:03:00,
2014-09-20 01:08:00,60.1,55.3,29.88,WNW,294,0.0,0.0,84,0.00,,---,0.00,VWS V14.00,2014-09-20 08:08:00,
2014-09-20 01:13:00,60.1,55.3,29.88,WNW,294,0.0,1.0,84,0.00,,---,0.00,VWS V14.00,2014-09-20 08:13:00,
2014-09-20 01:18:00,60.0,55.2,29.88,WNW,294,0.0,0.0,84,0.00,,---,0.00,VWS V14.00,2014-09-20 08:18:00,
2014-09-20 01:23:00,60.0,55.2,29.88,WNW,294,0.0,0.0,84,0.00,,---,0.00,VWS V14.00,2014-09-20 08:23:00,
2014-09-20 01:28:00,60.0,55.2,29.88,WNW,294,0.0,0.0,84,0.00,,---,0.00,VWS V14.00,2014-09-20 08:28:00,
2014-09-20 01:33:00,60.0,55.2,29.88,WNW,294,0.0,0.0,84,0.00,,---,0.00,VWS V14.00,2014-09-20 08:33:00,
2014-09-20 01:38:00,60.0,55.2,29.89,WNW,294,0.0,0.0,84,0.00,,---,0.00,VWS V14.00,2014-09-20 08:38:00,
2014-09-20 01:43:00,60.0,55.2,29.89,WNW,294,0.0,0.0,84,0.00,,---,0.00,VWS V14.00,2014-09-20 08:43:00,
2014-09-20 01:48:00,60.0,55.2,29.89,WNW,294,0.0,0.0,84,0.00,,---,0.00,VWS V14.00,2014-09-20 08:48:00,
2014-09-20 01:53:00,60.0,55.2,29.88,WNW,294,0.0,0.0,84,0.00,,---,0.00,VWS V14.00,2014-09-20 08:53:00,
2014-09-20 01:58:00,60.0,55.2,29.89,WNW,294,0.0,0.0,84,0.00,,---,0.00,VWS V14.00,2014-09-20 08:58:00,
2014-09-20 02:03:00,60.0,55.2,29.88,WNW,294,0.0,0.0,84,0.00,,---,0.00,VWS V14.00,2014-09-20 09:03:00,
2014-09-20 02:08:00,60.1,55.3,29.88,WNW,294,0.0,0.0,84,0.00,,---,0.00,VWS V14.00,2014-09-20 09:08:00,
2014-09-20 02:13:00,60.2,55.3,29.88,WNW,294,0.0,0.0,84,0.00,,---,0.00,VWS V14.00,2014-09-20 09:13:00,
2014-09-20 02:18:00,60.2,55.3,29.88,WNW,294,0.0,0.0,84,0.00,,---,0.00,VWS V14.00,2014-09-20 09:18:00,
2014-09-20 02:23:00,60.2,55.3,29.88,WNW,294,0.0,0.0,84,0.00,,---,0.00,VWS V14.00,2014-09-20 09:23:00,
2014-09-20 02:28:00,60.1,55.3,29.88,WNW,294,0.0,0.0,84,0.00,,---,0.00,VWS V14.00,2014-09-20 09:28:00,
2014-09-20 02:33:00,60.1,55.3,29.88,WNW,294,0.0,0.0,84,0.00,,---,0.00,VWS V14.00,2014-09-20 09:33:00,
2014-09-20 02:38:00,60.1,55.3,29.88,WNW,294,0.0,0.0,84,0.00,,---,0.00,VWS V14.00,2014-09-20 09:38:00,
2014-09-20 02:43:00,60.0,55.2,29.88,WNW,294,0.0,0.0,84,0.00,,---,0.00,VWS V14.00,2014-09-20 09:43:00,
2014-09-20 02:48:00,60.0,55.2,29.88,WNW,294,0.0,0.0,84,0.00,,---,0.00,VWS V14.00,2014-09-20 09:48:00,
2014-09-20 02:53:00,60.0,55.2,29.89,WNW,294,0.0,0.0,84,0.00,,---,0.00,VWS V14.00,2014-09-20 09:53:00,
2014-09-20 02:58:00,60.0,55.2,29.88,WNW,294,0.0,0.0,84,0.00,,---,0.00,VWS V14.00,2014-09-20 09:58:00,
2014-09-20 03:03:00,60.0,55.2,29.88,WNW,294,0.0,0.0,84,0.00,,---,0.00,VWS V14.00,2014-09-20 10:03:00,
2014-09-20 03:08:00,60.1,55.3,29.88,WNW,294,0.0,0.0,84,0.00,,---,0.00,VWS V14.00,2014-09-20 10:08:00,
2014-09-20 03:14:00,60.1,55.3,29.88,WNW,294,0.0,0.0,84,0.00,,---,0.00,VWS V14.00,2014-09-20 10:14:00,
2014-09-20 03:19:00,60.1,55.3,29.88,WNW,294,0.0,0.0,84,0.00,,---,0.00,VWS V14.00,2014-09-20 10:19:00,
2014-09-20 03:24:00,60.1,55.3,29.88,WNW,294,0.0,0.0,84,0.00,,---,0.00,VWS V14.00,2014-09-20 10:24:00,
2014-09-20 03:29:00,60.0,55.2,29.88,WNW,294,0.0,0.0,84,0.00,,---,0.00,VWS V14.00,2014-09-20 10:29:00,
2014-09-20 03:34:00,60.0,55.2,29.88,WNW,294,0.0,0.0,84,0.00,,---,0.00,VWS V14.00,2014-09-20 10:34:00,
2014-09-20 03:39:00,60.0,55.2,29.88,WNW,294,0.0,0.0,84,0.00,,---,0.00,VWS V14.00,2014-09-20 10:39:00,
2014-09-20 03:44:00,60.1,55.3,29.87,WNW,294,0.0,0.0,84,0.00,,---,0.00,VWS V14.00,2014-09-20 10:44:00,
2014-09-20 03:49:00,60.1,55.3,29.87,WNW,294,0.0,0.0,84,0.00,,---,0.00,VWS V14.00,2014-09-20 10:49:00,
2014-09-20 03:54:00,60.0,55.2,29.87,WNW,294,0.0,0.0,84,0.00,,---,0.00,VWS V14.00,2014-09-20 10:54:00,
2014-09-20 03:59:00,60.0,55.2,29.87,WNW,294,0.0,0.0,84,0.00,,---,0.00,VWS V14.00,2014-09-20 10:59:00,
2014-09-20 04:04:00,59.9,55.1,29.87,WNW,294,0.0,0.0,84,0.00,,---,0.00,VWS V14.00,2014-09-20 11:04:00,
2014-09-20 04:09:00,59.9,55.1,29.87,WNW,294,0.0,0.0,84,0.00,,---,0.00,VWS V14.00,2014-09-20 11:09:00,
2014-09-20 04:14:00,59.8,55.0,29.87,WNW,294,0.0,0.0,84,0.00,,---,0.00,VWS V14.00,2014-09-20 11:14:00,
2014-09-20 04:19:00,59.7,54.9,29.87,WNW,294,0.0,0.0,84,0.00,,---,0.00,VWS V14.00,2014-09-20 11:19:00,
2014-09-20 04:24:00,59.5,54.7,29.87,WNW,294,0.0,1.0,84,0.00,,---,0.00,VWS V14.00,2014-09-20 11:24:00,
2014-09-20 04:29:00,59.3,54.5,29.87,WNW,294,1.0,1.0,84,0.00,,---,0.00,VWS V14.00,2014-09-20 11:29:00,
2014-09-20 04:34:00,59.0,54.2,29.87,WNW,294,0.0,1.0,84,0.00,,---,0.00,VWS V14.00,2014-09-20 11:34:00,
2014-09-20 04:39:00,59.0,54.2,29.87,WNW,294,0.0,2.0,84,0.00,,---,0.00,VWS V14.00,2014-09-20 11:39:00,
2014-09-20 04:44:00,59.0,54.2,29.87,WNW,294,0.0,1.0,84,0.00,,---,0.00,VWS V14.00,2014-09-20 11:44:00,
2014-09-20 04:49:00,59.0,54.2,29.87,WNW,294,0.0,1.0,84,0.00,,---,0.00,VWS V14.00,2014-09-20 11:49:00,
2014-09-20 04:54:00,58.7,53.9,29.87,WNW,294,0.0,0.0,84,0.00,,---,0.00,VWS V14.00,2014-09-20 11:54:00,
2014-09-20 04:59:00,58.5,53.7,29.87,WNW,294,0.0,1.0,84,0.00,,---,0.00,VWS V14.00,2014-09-20 11:59:00,
2014-09-20 05:04:00,58.4,53.6,29.87,WNW,294,0.0,1.0,84,0.00,,---,0.00,VWS V14.00,2014-09-20 12:04:00,
2014-09-20 05:09:00,58.2,53.4,29.87,WNW,294,0.0,1.0,84,0.00,,---,0.00,VWS V14.00,2014-09-20 12:09:00,
2014-09-20 05:14:00,58.2,53.4,29.86,WNW,294,0.0,0.0,84,0.00,,---,0.00,VWS V14.00,2014-09-20 12:14:00,
2014-09-20 05:19:00,58.1,53.3,29.86,WNW,294,0.0,1.0,84,0.00,,---,0.00,VWS V14.00,2014-09-20 12:19:00,
2014-09-20 05:24:00,58.0,53.2,29.86,WNW,294,0.0,1.0,84,0.00,,---,0.00,VWS V14.00,2014-09-20 12:24:00,
2014-09-20 05:29:00,57.9,53.1,29.86,WNW,294,0.0,1.0,84,0.00,,---,0.00,VWS V14.00,2014-09-20 12:29:00,
2014-09-20 05:34:00,57.9,53.1,29.86,WNW,294,0.0,1.0,84,0.00,,---,0.00,VWS V14.00,2014-09-20 12:34:00,
2014-09-20 05:39:00,57.8,53.0,29.86,WNW,294,0.0,0.0,84,0.00,,---,0.00,VWS V14.00,2014-09-20 12:39:00,
2014-09-20 05:44:00,57.8,53.0,29.86,WNW,294,0.0,0.0,84,0.00,,---,0.00,VWS V14.00,2014-09-20 12:44:00,
2014-09-20 05:47:00,57.8,53.0,29.87,WNW,294,0.0,0.0,84,0.00,,---,0.00,VWS V14.00,2014-09-20 12:47:00,
2014-09-20 05:52:00,57.8,53.0,29.87,WNW,294,0.0,0.0,84,0.00,,---,0.00,VWS V14.00,2014-09-20 12:52:00,
2014-09-20 05:57:00,57.7,52.9,29.88,WNW,294,0.0,0.0,84,0.00,,---,0.00,VWS V14.00,2014-09-20 12:57:00,
2014-09-20 06:02:00,57.7,52.9,29.88,WNW,294,0.0,0.0,84,0.00,,---,0.00,VWS V14.00,2014-09-20 13:02:00,
2014-09-20 06:07:00,57.8,53.0,29.88,WNW,294,0.0,0.0,84,0.00,,---,0.00,VWS V14.00,2014-09-20 13:07:00,
2014-09-20 06:12:00,57.8,53.0,29.88,WNW,294,0.0,0.0,84,0.00,,---,0.00,VWS V14.00,2014-09-20 13:12:00,
2014-09-20 06:17:00,57.9,53.1,29.88,WNW,294,0.0,0.0,84,0.00,,---,0.00,VWS V14.00,2014-09-20 13:17:00,
2014-09-20 06:22:00,58.0,53.2,29.89,WNW,294,0.0,0.0,84,0.00,,---,0.00,VWS V14.00,2014-09-20 13:22:00,
2014-09-20 06:27:00,58.0,53.2,29.89,WNW,294,0.0,0.0,84,0.00,,---,0.00,VWS V14.00,2014-09-20 13:27:00,
2014-09-20 06:32:00,58.2,53.4,29.89,WNW,294,0.0,0.0,84,0.00,,---,0.00,VWS V14.00,2014-09-20 13:32:00,
2014-09-20 06:37:00,58.3,53.5,29.89,WNW,294,0.0,0.0,84,0.00,,---,0.00,VWS V14.00,2014-09-20 13:37:00,
2014-09-20 06:42:00,58.3,53.5,29.90,WNW,294,0.0,0.0,84,0.00,,---,0.00,VWS V14.00,2014-09-20 13:42:00,
2014-09-20 06:47:00,58.4,53.6,29.90,WNW,294,0.0,0.0,84,0.00,,---,0.00,VWS V14.00,2014-09-20 13:47:00,
2014-09-20 06:52:00,58.6,53.8,29.90,WNW,294,0.0,0.0,84,0.00,,---,0.00,VWS V14.00,2014-09-20 13:52:00,
2014-09-20 06:57:00,58.7,53.9,29.90,WNW,294,0.0,0.0,84,0.00,,---,0.00,VWS V14.00,2014-09-20 13:57:00,
2014-09-20 07:02:00,58.8,54.0,29.90,WNW,294,0.0,0.0,84,0.00,,---,0.00,VWS V14.00,2014-09-20 14:02:00,
2014-09-20 07:07:00,59.0,54.2,29.90,WNW,294,0.0,0.0,84,0.00,,---,0.00,VWS V14.00,2014-09-20 14:07:00,
2014-09-20 07:12:00,59.0,54.2,29.90,WNW,294,0.0,0.0,84,0.00,,---,0.00,VWS V14.00,2014-09-20 14:12:00,
2014-09-20 07:17:00,59.0,54.8,29.91,WNW,294,0.0,0.0,86,0.00,,---,0.00,VWS V14.00,2014-09-20 14:17:00,
2014-09-20 07:22:00,59.0,54.2,29.92,WNW,294,0.0,0.0,84,0.00,,---,0.00,VWS V14.00,2014-09-20 14:22:00,
2014-09-20 07:27:00,59.0,54.2,29.92,WNW,294,0.0,0.0,84,0.00,,---,0.00,VWS V14.00,2014-09-20 14:27:00,
2014-09-20 07:32:00,59.0,54.2,29.92,WNW,294,0.0,0.0,84,0.00,,---,0.00,VWS V14.00,2014-09-20 14:32:00,
2014-09-20 07:38:00,59.0,54.8,29.92,WNW,294,0.0,0.0,86,0.00,,---,0.00,VWS V14.00,2014-09-20 14:38:00,
2014-09-20 07:43:00,58.8,54.0,29.92,WNW,294,0.0,0.0,84,0.00,,---,0.00,VWS V14.00,2014-09-20 14:43:00,
2014-09-20 07:48:00,58.7,53.9,29.92,WNW,294,0.0,0.0,84,0.00,,---,0.00,VWS V14.00,2014-09-20 14:48:00,
2014-09-20 07:53:00,58.6,53.8,29.92,WNW,294,0.0,0.0,84,0.00,,---,0.00,VWS V14.00,2014-09-20 14:53:00,
2014-09-20 07:58:00,58.6,53.8,29.92,WNW,294,0.0,0.0,84,0.00,,---,0.00,VWS V14.00,2014-09-20 14:58:00,
2014-09-20 08:03:00,58.6,53.8,29.92,WNW,294,0.0,0.0,84,0.00,,---,0.00,VWS V14.00,2014-09-20 15:03:00,
2014-09-20 08:05:00,58.6,53.8,29.92,WNW,294,0.0,0.0,84,0.00,,---,0.00,VWS V14.00,2014-09-20 15:05:00,
2014-09-20 08:10:00,58.6,53.8,29.92,WNW,294,0.0,0.0,84,0.00,,---,0.00,VWS V14.00,2014-09-20 15:10:00,
2014-09-20 08:14:00,58.6,53.8,29.92,WNW,294,0.0,0.0,84,0.00,,---,0.00,VWS V14.00,2014-09-20 15:14:00,
2014-09-20 08:19:00,58.6,53.8,29.92,WNW,294,0.0,0.0,84,0.00,,---,0.00,VWS V14.00,2014-09-20 15:19:00,
2014-09-20 08:24:00,58.7,53.9,29.92,WNW,294,0.0,0.0,84,0.00,,---,0.00,VWS V14.00,2014-09-20 15:24:00,
2014-09-20 08:29:00,58.8,54.0,29.92,WNW,294,0.0,0.0,84,0.00,,---,0.00,VWS V14.00,2014-09-20 15:29:00,
2014-09-20 08:34:00,58.8,54.0,29.92,WNW,294,0.0,0.0,84,0.00,,---,0.00,VWS V14.00,2014-09-20 15:34:00,
2014-09-20 08:39:00,59.0,54.2,29.92,WNW,294,0.0,0.0,84,0.00,,---,0.00,VWS V14.00,2014-09-20 15:39:00,
2014-09-20 08:44:00,59.0,54.2,29.92,WNW,294,0.0,0.0,84,0.00,,---,0.00,VWS V14.00,2014-09-20 15:44:00,
2014-09-20 08:49:00,59.0,54.2,29.92,WNW,294,0.0,0.0,84,0.00,,---,0.00,VWS V14.00,2014-09-20 15:49:00,
2014-09-20 08:54:00,59.0,54.2,29.92,WNW,294,0.0,0.0,84,0.00,,---,0.00,VWS V14.00,2014-09-20 15:54:00,
2014-09-20 08:59:00,59.0,54.2,29.92,WNW,294,0.0,1.0,84,0.00,,---,0.00,VWS V14.00,2014-09-20 15:59:00,
2014-09-20 09:04:00,59.1,54.3,29.92,WNW,294,0.0,0.0,84,0.00,,---,0.00,VWS V14.00,2014-09-20 16:04:00,
2014-09-20 09:09:00,59.4,54.6,29.93,WNW,294,0.0,0.0,84,0.00,,---,0.00,VWS V14.00,2014-09-20 16:09:00,
2014-09-20 09:14:00,59.6,54.8,29.93,WNW,294,0.0,0.0,84,0.00,,---,0.00,VWS V14.00,2014-09-20 16:14:00,
2014-09-20 09:19:00,59.8,55.0,29.93,WNW,294,0.0,0.0,84,0.00,,---,0.00,VWS V14.00,2014-09-20 16:19:00,
2014-09-20 09:24:00,59.9,55.4,29.93,WNW,294,0.0,0.0,85,0.00,,---,0.00,VWS V14.00,2014-09-20 16:24:00,
2014-09-20 09:29:00,60.0,55.5,29.93,WNW,294,0.0,0.0,85,0.00,,---,0.00,VWS V14.00,2014-09-20 16:29:00,
2014-09-20 09:34:00,60.2,55.3,29.93,WNW,294,0.0,0.0,84,0.00,,---,0.00,VWS V14.00,2014-09-20 16:34:00,
2014-09-20 09:39:00,60.4,55.5,29.93,WNW,294,0.0,0.0,84,0.00,,---,0.00,VWS V14.00,2014-09-20 16:39:00,
2014-09-20 09:44:00,60.6,55.8,29.94,WNW,294,0.0,0.0,84,0.00,,---,0.00,VWS V14.00,2014-09-20 16:44:00,